SCP
0 0 0 0 0 0 0 0 0 0 0 0 0 0 0 0 0 0 0 0 0 0
0 0 0 0 0 0 0 0 0 0 0 0 0 0 0 0 0 0 0 0 0 0
0 0 0 0 0 0 0 0 0 0 0 0 0 0 0 0 0 0 0 0 0 0
0 0 0 0 0 0 0 0 0 0 0 0 0 0 0 0 0 0 0 0 0 0
0 0 0 0 0 0 0 0 0 0 0 -0 -0 0 0 0 0 0 0 0 0 0
-0 -0 -0 -0 0 0 0 0 0 0 0 0 0 0 0 -0 0 0 0 0 0 0
-0 -0 -0 -0 -0 -0 -0 0 0 0 0 0 0 0 0 0 0 0 0 0 0 0
0 -0 -0 -0 -0 -0 -0 -0 -0 -0 0 0 0 0 0 0 0 0 0 0 0 0
0 0 0 0 0 -0 -0 -0 -0 -0 -0 -0 -0 -0 0 0 0 0 0 0 0 0
0 0 0 0 0 0 0 0 0 -0 -0 -0 -0 -0 0 0 0 0 0 0 0 0
0 0 0 0 0 0 0 0 0 0 0 0 0 0 0 0 0 0 0 0 0 0
0 0 0 0 0 0 0 0 0 0 0 0 0 0 0 0 0 0 0 0 0 0
0 0 0 0 0 0 0 0 0 0 0 0 0 0 0 0 0 0 0 0 0 0
0 0 0 0 0 0 0 0 0 0 0 0 0 0 0 0 0 0 0 0 0 0
Wind_Speed_500mb
28 29 28 28 27 27 27 26 26 30 36 37 32 28 32 43 54 61 67 72 75 81
28 29 29 29 31 30 28 30 31 29 27 29 34 37 39 40 43 51 61 70 73 75
26 28 31 33 33 34 36 37 37 38 37 34 31 30 33 38 43 49 54 63 68 73
29 29 28 31 33 36 38 42 47 50 50 47 44 39 35 36 39 46 52 54 59 68
40 42 45 41 42 45 44 42 45 48 51 57 58 54 46 39 37 43 49 50 52 62
48 51 53 56 58 60 61 60 58 56 56 57 60 66 66 60 52 47 48 50 54 59
54 58 62 65 68 70 71 72 71 72 71 69 68 68 70 73 70 67 61 57 55 57
64 69 72 74 76 77 77 78 80 82 82 83 83 81 80 80 76 75 76 75 71 64
70 74 77 80 84 87 89 92 95 98 101 103 102 99 96 95 91 90 87 85 85 83
71 75 78 84 90 96 100 104 109 113 115 117 116 113 111 109 102 99 98 99 98 95
72 77 84 91 96 102 104 108 111 115 117 121 125 124 119 91 80 93 105 107 107 107
83 89 91 93 95 97 100 106 109 111 113 107 123 117 95 85 87 95 108 112 113 112
87 90 93 94 97 98 97 102 103 109 107 108 114 111 93 87 90 97 100 111 115 111
86 89 93 96 95 94 92 90 89 90 88 86 85 88 73 70 73 82 88 92 94 92
Wind_Direction_500mb
16 16 19 16 9 0 353 341 319 299 293 291 282 272 270 263 259 260 262 263 262 263
16 10 13 9 2 358 356 351 345 339 332 311 298 290 279 269 267 266 263 262 263 261
12 7 360 352 347 344 344 346 346 346 341 332 320 309 299 291 279 269 267 265 263 264
358 350 343 338 333 330 333 330 332 334 336 334 329 322 314 307 299 287 278 271 267 267
349 343 338 334 331 329 324 322 320 318 316 320 322 321 317 311 305 303 297 294 285 275
341 336 330 329 327 324 321 320 316 311 308 307 307 309 310 310 310 306 302 300 296 290
332 329 325 323 321 319 317 316 314 311 308 306 303 301 300 300 302 302 301 298 292 290
322 321 319 317 314 313 312 311 310 307 305 303 301 300 300 297 296 294 292 291 291 289
312 312 312 311 311 310 309 307 304 302 301 298 298 298 297 297 296 294 292 287 285 285
308 309 309 308 306 305 303 301 300 299 298 297 296 295 294 293 291 288 286 286 284 282
310 308 306 304 302 301 301 299 297 295 294 294 292 292 293 293 289 285 283 281 280 280
309 308 308 306 305 303 300 298 296 294 292 289 288 288 290 292 291 287 285 283 279 276
313 313 312 311 309 307 305 301 299 295 294 292 291 290 290 290 288 287 285 283 281 278
316 315 315 314 314 312 310 307 305 303 304 303 301 301 298 294 288 285 286 283 282 279
Wind_Speed_850mb
28 29 28 28 27 27 27 26 26 30 36 37 32 28 32 43 54 61 67 72 75 81
28 29 29 29 31 30 28 30 31 29 27 29 34 37 39 40 43 51 61 70 73 75
26 28 31 33 33 34 36 37 37 38 37 34 31 30 33 38 43 49 54 63 68 73
29 29 28 31 33 36 38 42 47 50 50 47 44 39 35 36 39 46 52 54 59 68
40 42 45 41 42 45 44 42 45 48 51 57 58 54 46 39 37 43 49 50 52 62
48 51 53 56 58 60 61 60 58 56 56 57 60 66 66 60 52 47 48 50 54 59
54 58 62 65 68 70 71 72 71 72 71 69 68 68 70 73 70 67 61 57 55 57
64 69 72 74 76 77 77 78 80 82 82 83 83 81 80 80 76 75 76 75 71 64
70 74 77 80 84 87 89 92 95 98 101 103 102 99 96 95 91 90 87 85 85 83
71 75 78 84 90 96 100 104 109 113 115 117 116 113 111 109 102 99 98 99 98 95
72 77 84 91 96 102 104 108 111 115 117 121 125 124 119 91 80 93 105 107 107 107
83 89 91 93 95 97 100 106 109 111 113 107 123 117 95 85 87 95 108 112 113 112
87 90 93 94 97 98 97 102 103 109 107 108 114 111 93 87 90 97 100 111 115 111
86 89 93 96 95 94 92 90 89 90 88 86 85 88 73 70 73 82 88 92 94 92
Wind_Direction_850mb
16 16 19 16 9 0 353 341 319 299 293 291 282 272 270 263 259 260 262 263 262 263
16 10 13 9 2 358 356 351 345 339 332 311 298 290 279 269 267 266 263 262 263 261
12 7 360 352 347 344 344 346 346 346 341 332 320 309 299 291 279 269 267 265 263 264
358 350 343 338 333 330 333 330 332 334 336 334 329 322 314 307 299 287 278 271 267 267
349 343 338 334 331 329 324 322 320 318 316 320 322 321 317 311 305 303 297 294 285 275
341 336 330 329 327 324 321 320 316 311 308 307 307 309 310 310 310 306 302 300 296 290
332 329 325 323 321 319 317 316 314 311 308 306 303 301 300 300 302 302 301 298 292 290
322 321 319 317 314 313 312 311 310 307 305 303 301 300 300 297 296 294 292 291 291 289
312 312 312 311 311 310 309 307 304 302 301 298 298 298 297 297 296 294 292 287 285 285
308 309 309 308 306 305 303 301 300 299 298 297 296 295 294 293 291 288 286 286 284 282
310 308 306 304 302 301 301 299 297 295 294 294 292 292 293 293 289 285 283 281 280 280
309 308 308 306 305 303 300 298 296 294 292 289 288 288 290 292 291 287 285 283 279 276
313 313 312 311 309 307 305 301 299 295 294 292 291 290 290 290 288 287 285 283 281 278
316 315 315 314 314 312 310 307 305 303 304 303 301 301 298 294 288 285 286 283 282 279